Regional Weather Roundup
Issued by NWS Newport/Morehead, NC

Current Version | Previous Version | Text Only | Print | Product List | Glossary Off
Versions: 1 2 3 4 5 6 7 8 9 10 11 12 13 14 15 16 17 18 19 20 21 22 23 24 25 26 27 28 29 30 31 32 33 34 35 36 37 38 39 40 41 42 43 44 45 46 47 48 49 50
000 ASUS42 KMHX 211626 RWRMHX WEATHER ROUNDUP FOR EASTERN NORTH CAROLINA NATIONAL WEATHER SERVICE NEWPORT/MOREHEAD CITY NC 1200 PM EDT SAT APR 21 2018 NOTE: "FAIR" INDICATES FEW OR NO CLOUDS BELOW 12,000 FEET WITH NO SIGNIFICANT WEATHER AND/OR OBSTRUCTIONS TO VISIBILITY NCZ015>017-031-032-045>047-102-103-211700- NORTH COAST CITY SKY/WX TMP DP RH WIND PRES REMARKS EDENTON FAIR 60 40 47 S7 30.45F ELIZABETH CITY FAIR 58 42 55 CALM 30.46F KITTY HAWK FAIR 52 39 61 E5 30.46S MANTEO FAIR 53 40 61 E10 30.47S $$ NCZ045>047-081-094-103-104-211700- CENTRAL COAST CITY SKY/WX TMP DP RH WIND PRES REMARKS FRISCO FAIR 58 38 47 NE10G18 30.45S $$ NCZ095-097-098-100-101-211700- SOUTHERN COAST CITY SKY/WX TMP DP RH WIND PRES REMARKS BEAUFORT FAIR 63 37 38 VRB6 30.43F CEDAR ISLAND NOT AVBL JACKSONVILLE FAIR 63 33 32 MISG 30.43F PINEY ISLAND NOT AVBL WILMINGTON FAIR 63 32 31 E10 30.43F $$ NCZ011>013-027>030-043-044-078>080-089-090>093-098-211700- COASTAL PLAIN CITY SKY/WX TMP DP RH WIND PRES REMARKS AHOSKIE FAIR 59 32 36 CALM 30.44F CLINTON FAIR 62 39 42 NE5 30.44F ELIZABETHTOWN FAIR 63 36 36 MISG 30.42F GOLDSBORO FAIR 62 39 42 E3 30.43F GREENVILLE FAIR 63 34 34 E3 30.44F HAVELOCK SUNNY 64 36 35 CALM 30.44F KENANSVILLE FAIR 63 36 36 E6 30.44F KINSTON FAIR 61 32 33 CALM 30.45F NEW BERN FAIR 60 33 36 CALM 30.45F RICHLANDS FAIR 63 33 32 CALM 30.43F ROCKY MOUNT FAIR 62 35 36 N6 30.45F WASHINGTON FAIR 62 30 29 CALM 30.44F WHITEVILLE FAIR 64 36 35 NE9 30.42F $$ AMZ130-135-150-152-154-156-158-170-250-252-270-ANZ085-086-088-633-658-670-211700- MARINE OBSERVATIONS STATION/POSITION TIME TEMP WIND PRES WAVE SWELL AIR SEA DIR/SP/G HT/PER HT/PER (UTC) (F) (DEG/KT/KT) (MB) (FT/S) (FT/S) CHESAPEAKE LIGHT NOT AVBL 64 E VA BEACH 1550 46 49 360/ 8/ 10 1032.2 3/ 5 2/ 5 DUCK 1600 48 52 40/ 8/ 9 1031.4 2 E DUCK 1600 52 N/A 2/13 OREGON INLET 1554 51 54 30/ 10/ 12 1031.4 13E OREGON INLT 1548 50 N/A 3/ 6 2/ 6 HATTERAS CG NOT AVBL DIAMOND BUOY 1610 54 68 20/ 16/ 19 1030.9 CAPE LOOKOUT 1600 50/ 12/ 13 1031.0 BEAUFORT LAB 1600 40/ 2/ 10 1030.6 30 SE NEW RVR IN 1608 59 66 70/ 10/ 14 1030.4 30 SE NEW RVR IN 1600 66 N/A 4/ 7 27 SE WRIGHTSVLE 1608 60 66 60/ 17/ 25 1029.9 5 SE WRIGHTSVLE NOT AVBL 225 S CAPE HAT 1610 64 72 50/ 10/ 16 1027.3 41 SE CHARLESTON 1610 65 67 70/ 17/ 19 1027.6 $$

USA.gov is the U.S. government's official web portal to all federal, state and local government web resources and services.